Starlink 30600

operational
NORAD ID: 58100 Int'l Des: 2023-161 Owner: SPXS Country: US Constellation: starlink
LEOCIRCULAR

Starlink 30600について

説明を読み込み中...

リアルタイム位置

3D地球を読み込み中...

次回通過

高度履歴

Altitude vs Time

uPlot chart will show altitude changes over time

軌道要素

1 58100U 23161D 25302.48885885 .00000468 00000-0 27944-4 0 9991
2 58100 53.1633 54.9751 0001041 102.6052 257.5065 15.30190171114330
Epoch: Oct 29, 2025 • Age: 6 hours

現在のステータス

高度 482.9 km
速度 7.62 km/s
衛星直下点 -24.63°S, 87.5°E
打ち上げ日 Oct 21, 2023
運用期間 2 years
タイプ internet

技術仕様

分類 Payload
質量 730.00 kg
乾燥質量 700.00 kg
総質量 730.00 kg
長さ 0.30 m
直径 4.10 m
スパン 29.00 m
形状 Box + pan
製造者 SPXS
バスタイプ Starlink V2M
フェーズステータス In Orbit
所有者/国 SPXS/US

大規模コンステレーション

Loading constellations...